Location: Munkebjergskolens Observatorium
(55.3864°N, 10.3987°E)
Time: 22:45:32
(UTC+01:00)

DELTA 1 DEB - Pass Details

Date: 09 December 2023
Orbit: 783 x 826 km, 98.9° (Epoch: 04 March)

Event Time Altitude Azimuth Distance (km) Brightness Sun altitude
Rises 18:41:33 0° 190° (S) 3,299 ? -22.9°
Reaches altitude 10° 18:44:03 10° 199° (SSW) 2,381 ? -23.3°
Maximum altitude 18:48:51 35° 265° (W) 1,290 ? -24.0°
Drops below altitude 10° 18:53:45 10° 330° (NNW) 2,423 ? -24.7°
Sets 18:56:20 0° 340° (NNW) 3,366 ? -25.0°
